Wind_Speed
6 6 6 6 5 4 3 3 2 1 1 1 1 0 0 0 1 2 3 2 2 3 3 3 2 2 2 2 2 2 2 2 3 4 3 4 4 4 4 5 4 4 4
7 6 6 6 5 4 3 3 2 1 1 0 0 1 1 1 1 2 3 3 3 3 3 3 3 3 3 2 2 2 2 2 2 3 3 2 3 4 4 5 4 4 5
7 6 6 5 5 4 4 3 3 2 1 1 0 1 1 2 2 3 3 3 3 4 4 4 4 3 3 3 3 3 3 3 3 3 4 3 3 4 5 4 4 4 5
8 7 6 6 5 5 4 3 3 3 2 1 1 1 1 2 2 3 3 3 3 3 4 4 4 4 4 3 3 3 3 2 3 3 3 4 3 4 4 5 5 5 5
9 8 7 6 5 5 4 3 3 3 2 1 1 2 2 2 2 2 2 3 3 3 3 3 4 3 4 3 3 4 3 3 3 3 3 3 3 3 4 4 5 5 5
9 8 8 7 6 6 5 4 3 2 2 2 2 2 1 1 2 2 2 3 3 3 3 3 3 3 3 3 3 3 3 4 4 3 3 3 2 2 3 3 4 5 5
10 9 8 7 7 6 5 4 3 3 3 2 2 1 1 1 1 1 1 2 3 2 2 2 2 2 2 3 3 3 3 4 4 3 4 3 3 3 3 3 4 5 5
10 9 8 7 7 6 4 5 5 4 3 2 2 1 1 1 1 1 1 1 2 2 2 2 2 2 1 2 2 3 3 3 4 3 3 3 3 3 3 3 4 4 4
10 9 8 8 7 7 6 6 5 5 3 2 3 2 2 3 2 1 0 1 1 1 1 2 2 2 2 1 1 2 3 2 3 3 3 3 2 3 3 2 3 3 3
11 10 8 8 7 7 7 7 7 5 4 4 5 4 4 3 2 2 2 1 1 1 2 2 3 3 2 1 1 2 2 2 3 3 3 3 3 3 3 3 3 4 4
11 10 9 8 8 7 7 8 7 6 5 5 5 5 5 4 4 3 3 2 1 0 2 2 2 3 2 2 2 2 2 3 4 4 4 4 4 4 3 3 3 4 4
10 10 9 9 9 9 8 9 7 6 6 5 6 5 4 3 4 3 3 2 2 1 1 2 2 2 2 3 3 2 2 3 4 4 4 4 4 3 4 4 4 4 5
10 10 10 9 9 9 8 8 8 7 6 6 5 5 5 4 3 3 2 2 1 1 1 2 2 2 2 3 3 3 3 4 4 4 3 4 4 4 4 4 4 5 6
10 10 9 9 9 9 8 8 7 6 5 5 5 4 4 4 3 3 3 2 2 2 2 2 1 1 1 2 3 3 3 4 4 4 4 4 4 4 4 5 5 6 6
10 9 9 8 8 8 8 7 7 6 5 5 5 4 4 3 3 3 4 3 2 2 2 1 1 1 2 2 2 2 3 3 4 4 5 5 5 5 5 5 6 6 7
9 9 9 9 9 9 8 7 7 7 6 5 5 5 4 4 4 4 3 3 3 2 2 2 1 2 2 2 3 3 3 3 4 5 5 6 5 5 6 7 6 7 8
9 9 9 9 9 9 8 8 7 7 7 6 5 5 4 4 4 4 4 3 3 2 2 1 1 2 3 3 4 4 4 5 5 5 5 5 5 6 7 7 7 8 8
9 9 9 9 8 8 8 8 7 7 6 6 5 4 3 3 4 4 4 3 3 3 2 2 2 3 3 4 5 5 5 5 5 6 6 5 6 6 7 7 8 8 8
9 9 9 8 8 7 7 8 7 6 6 5 5 4 3 3 3 4 3 3 3 3 2 3 4 4 3 4 4 5 5 5 6 6 6 6 6 6 7 7 8 8 8
8 8 8 8 7 7 7 7 7 6 6 5 5 5 4 3 3 4 3 3 3 3 4 4 4 5 5 5 5 5 6 6 6 6 7 7 7 7 7 8 8 8 8
9 9 9 8 7 6 7 7 7 6 6 5 5 4 4 4 4 4 4 4 5 5 4 4 5 5 5 5 5 6 7 8 7 7 8 7 8 8 8 8 8 8 8
8 8 8 8 7 7 7 7 7 7 7 6 5 5 5 4 4 5 5 5 6 6 5 5 5 5 6 6 6 6 6 7 7 8 8 9 8 8 8 9 8 9 9
9 8 8 8 8 8 8 8 8 8 8 6 6 5 5 5 5 5 5 5 6 6 6 6 6 6 6 6 6 6 6 7 8 8 8 8 8 8 8 9 9 9 9
10 9 9 8 8 8 8 8 8 8 8 6 6 5 5 5 5 5 5 5 6 7 7 6 6 6 7 7 7 7 7 7 8 8 8 8 9 9 8 8 8 9 9
11 10 10 8 8 9 9 8 8 8 8 7 6 6 5 5 6 5 5 5 6 7 7 7 7 7 7 7 7 7 7 8 8 8 8 9 9 9 9 9 9 10 10
11 11 10 9 9 9 9 9 9 9 8 8 7 7 6 7 6 6 6 6 6 7 7 7 7 8 8 8 7 8 8 9 9 9 9 9 9 10 10 10 10 11 11
Wind_Direction
44 41 39 36 31 36 43 55 49 37 92 118 133 259 322 172 210 219 230 229 230 230 225 229 219 212 206 202 202 212 215 226 228 229 234 239 248 254 243 230 229 228 223
38 38 37 34 35 36 36 42 42 29 70 133 186 254 266 273 246 234 235 223 225 222 224 231 228 223 224 224 224 225 224 225 235 236 238 250 258 258 239 232 232 228 228
35 34 30 39 37 31 30 48 39 35 24 336 299 274 260 259 255 247 239 225 225 221 227 232 230 236 228 228 231 236 245 242 249 251 246 262 276 258 240 238 237 238 241
37 36 36 38 32 31 30 41 36 22 10 343 311 274 261 258 253 245 226 218 218 220 227 231 230 232 229 227 235 232 240 245 243 254 252 265 275 259 246 239 245 246 243
40 41 40 38 35 29 27 38 28 17 11 340 308 287 272 252 242 237 225 213 217 227 231 231 233 237 236 233 234 235 234 231 235 245 249 266 275 259 250 246 252 252 248
41 41 39 38 36 32 30 34 31 30 18 340 319 304 276 230 222 220 228 211 217 228 234 237 231 236 241 239 242 242 240 232 238 246 247 265 259 252 252 249 250 251 249
40 41 40 40 38 39 36 33 35 28 10 348 335 301 266 211 203 212 223 215 214 218 235 242 233 241 247 243 240 242 244 245 253 249 248 258 262 258 256 256 251 255 250
39 40 41 40 38 41 38 29 24 9 355 347 350 9 159 160 179 200 232 231 208 207 230 236 230 254 261 248 247 248 250 247 254 258 255 262 273 269 263 257 255 256 254
36 38 40 43 41 40 37 27 18 7 360 10 22 38 141 152 149 160 218 176 190 224 251 239 237 262 261 262 265 251 227 245 255 251 253 261 267 272 270 263 260 268 261
36 34 34 37 33 31 32 30 25 27 40 39 40 61 100 107 110 98 100 104 139 238 262 251 252 265 248 237 271 258 239 251 248 251 258 260 260 265 274 275 274 272 276
35 33 32 31 32 32 31 29 33 45 58 58 65 72 86 84 79 76 66 64 65 262 265 251 265 265 249 246 253 261 271 264 260 267 269 272 259 253 262 276 277 280 285
35 34 35 35 34 35 33 31 39 53 66 66 70 72 72 72 71 64 49 42 39 7 286 275 269 269 259 255 247 255 274 279 275 274 273 272 265 258 261 268 271 277 285
33 34 32 33 33 34 36 33 44 56 70 71 67 67 64 61 61 59 49 33 18 19 329 301 279 264 256 254 252 261 271 277 278 279 272 271 265 262 270 267 269 279 282
31 33 33 30 31 34 36 34 39 52 63 66 65 64 65 62 52 46 34 10 356 343 337 331 305 246 253 262 268 272 269 265 266 271 273 267 270 268 272 270 276 281 282
29 30 32 33 35 36 37 37 38 41 53 51 46 54 53 48 41 34 23 23 20 7 351 345 302 260 261 272 281 287 279 270 259 263 272 277 276 275 278 284 280 281 286
30 31 30 31 33 36 40 44 43 40 42 40 40 40 42 36 30 27 20 22 5 341 332 340 320 269 271 281 288 298 292 292 285 275 280 281 279 284 285 290 287 284 288
24 27 30 32 35 36 40 44 42 39 42 41 39 40 41 36 30 22 17 7 360 339 325 312 303 286 277 288 295 295 292 293 292 292 293 284 284 289 286 291 291 292 291
17 17 21 28 33 38 40 39 36 34 35 32 30 30 24 23 15 4 358 2 359 355 349 335 319 307 299 292 297 297 290 291 290 292 297 294 291 296 300 298 294 294 292
12 13 15 18 27 36 37 36 29 24 24 20 17 10 6 11 7 0 355 348 339 333 329 324 322 313 305 303 300 298 296 292 288 291 292 293 292 292 295 298 296 293 296
6 7 6 7 13 25 28 24 21 16 12 9 7 3 357 352 350 348 348 339 334 323 318 322 322 317 310 302 299 297 295 291 288 291 288 290 294 293 291 292 293 296 300
359 360 360 359 1 5 10 12 9 6 3 0 358 355 349 345 341 339 338 333 334 335 331 326 327 329 327 319 304 296 295 296 291 293 287 291 300 299 292 289 288 291 293
349 349 353 354 354 357 356 355 356 356 354 350 348 345 340 340 341 343 341 334 328 330 330 326 326 327 326 322 316 311 299 299 298 294 288 289 293 298 293 287 290 291 291
341 342 344 347 348 346 345 344 343 341 342 339 340 335 332 332 334 340 340 336 332 330 325 318 315 316 319 320 317 316 313 316 314 305 299 294 293 295 292 291 293 293 289
339 339 341 341 342 340 337 338 336 334 336 334 330 327 325 326 327 330 336 335 334 331 327 320 318 316 314 317 315 316 313 311 312 313 308 306 301 299 295 295 295 294 291
335 334 334 334 332 331 330 329 328 329 330 325 321 317 316 319 321 318 322 330 333 332 329 325 321 320 317 316 316 316 315 311 310 309 305 303 301 300 296 297 295 295 294
328 326 323 322 321 320 320 322 325 325 327 324 322 314 315 316 316 315 317 317 324 328 329 328 325 321 317 316 312 313 315 315 310 304 299 299 298 296 295 296 297 298 297
Height
5888 5887 5886 5885 5885 5884 5884 5884 5884 5884 5884 5884 5884 5884 5884 5884 5884 5884 5884 5885 5885 5885 5885 5885 5885 5886 5886 5886 5886 5886 5886 5885 5885 5885 5885 5885 5885 5885 5885 5884 5884 5884 5884
5888 5887 5886 5886 5885 5885 5885 5884 5884 5884 5884 5884 5884 5884 5884 5884 5884 5883 5884 5884 5884 5884 5884 5884 5885 5885 5886 5886 5886 5886 5886 5885 5885 5885 5885 5885 5884 5884 5884 5884 5883 5883 5883
5888 5887 5886 5886 5886 5885 5885 5884 5884 5884 5884 5884 5884 5884 5883 5883 5883 5883 5883 5883 5883 5884 5884 5884 5885 5885 5885 5885 5886 5886 5885 5885 5885 5884 5884 5884 5883 5883 5883 5883 5883 5882 5882
5888 5887 5887 5886 5886 5886 5885 5885 5884 5884 5884 5884 5883 5883 5883 5883 5882 5882 5882 5882 5883 5883 5883 5884 5884 5885 5885 5885 5885 5885 5885 5884 5884 5884 5883 5883 5882 5882 5882 5882 5882 5881 5881
5889 5888 5887 5887 5886 5886 5885 5885 5884 5884 5883 5883 5883 5882 5882 5882 5882 5882 5882 5882 5882 5883 5883 5883 5884 5884 5884 5884 5884 5884 5884 5884 5883 5883 5883 5882 5882 5881 5881 5881 5881 5881 5880
5890 5889 5888 5887 5887 5886 5885 5885 5884 5883 5883 5882 5882 5881 5881 5881 5881 5882 5882 5882 5882 5883 5883 5883 5883 5884 5884 5884 5884 5884 5884 5883 5883 5882 5882 5882 5881 5881 5880 5880 5880 5880 5879
5891 5890 5889 5888 5887 5886 5885 5884 5884 5883 5882 5881 5880 5880 5880 5881 5881 5881 5882 5882 5882 5882 5883 5883 5883 5883 5883 5883 5883 5883 5883 5883 5882 5881 5881 5881 5880 5880 5880 5879 5879 5879 5878
5892 5890 5889 5888 5887 5886 5885 5884 5883 5882 5881 5880 5879 5878 5879 5880 5881 5881 5881 5882 5882 5882 5882 5883 5883 5883 5883 5883 5883 5882 5882 5882 5881 5881 5880 5880 5880 5879 5879 5878 5878 5877 5877
5892 5891 5890 5888 5887 5887 5886 5885 5883 5882 5880 5879 5877 5874 5876 5879 5880 5881 5881 5881 5882 5882 5882 5882 5882 5882 5882 5882 5882 5881 5881 5881 5881 5880 5880 5879 5879 5878 5878 5877 5877 5876 5876
5893 5892 5890 5889 5888 5887 5886 5884 5882 5881 5880 5879 5876 5874 5876 5879 5880 5881 5881 5881 5881 5882 5882 5882 5882 5882 5881 5881 5881 5880 5880 5880 5880 5879 5879 5878 5878 5877 5877 5876 5875 5875 5874
5894 5892 5891 5889 5888 5887 5886 5884 5882 5880 5880 5880 5879 5878 5879 5880 5880 5881 5881 5881 5881 5881 5881 5881 5881 5881 5881 5880 5880 5880 5879 5879 5879 5878 5878 5877 5876 5876 5875 5875 5874 5873 5873
5895 5893 5892 5891 5889 5888 5886 5884 5881 5880 5881 5881 5881 5880 5881 5881 5881 5882 5882 5881 5881 5881 5880 5880 5880 5880 5880 5880 5879 5879 5879 5878 5878 5877 5877 5876 5875 5875 5874 5874 5873 5872 5871
5896 5894 5893 5891 5890 5888 5887 5885 5882 5881 5881 5882 5882 5882 5882 5882 5882 5882 5881 5881 5881 5880 5880 5879 5879 5879 5879 5879 5878 5878 5878 5877 5877 5876 5875 5875 5874 5873 5873 5872 5871 5870 5870
5896 5895 5894 5892 5890 5889 5887 5886 5885 5884 5883 5883 5883 5882 5882 5882 5882 5882 5881 5881 5880 5880 5880 5879 5879 5878 5878 5878 5877 5877 5877 5876 5875 5875 5874 5874 5873 5872 5871 5871 5870 5869 5868
5897 5896 5894 5893 5891 5890 5888 5887 5886 5885 5884 5884 5884 5883 5883 5882 5882 5882 5881 5881 5880 5880 5879 5879 5878 5878 5878 5877 5877 5876 5876 5875 5874 5874 5873 5872 5871 5870 5869 5868 5868 5867 5866
5898 5896 5895 5893 5892 5891 5889 5888 5887 5886 5885 5885 5884 5884 5883 5883 5882 5882 5881 5880 5880 5879 5878 5878 5877 5877 5877 5877 5876 5876 5875 5874 5873 5872 5871 5870 5869 5868 5867 5866 5865 5865 5864
5898 5896 5895 5894 5892 5891 5890 5889 5888 5887 5886 5885 5885 5884 5883 5883 5882 5882 5881 5880 5879 5879 5878 5877 5877 5877 5876 5876 5875 5875 5874 5872 5872 5871 5870 5868 5867 5866 5865 5864 5864 5863 5862
5898 5897 5895 5894 5893 5892 5891 5890 5889 5888 5887 5886 5885 5884 5883 5882 5882 5881 5881 5880 5879 5878 5877 5877 5876 5875 5875 5874 5874 5873 5872 5871 5870 5869 5868 5867 5866 5865 5864 5863 5862 5861 5860
5899 5897 5896 5894 5893 5892 5891 5890 5889 5888 5887 5886 5885 5884 5883 5882 5881 5881 5880 5879 5878 5877 5877 5876 5875 5874 5873 5873 5872 5871 5870 5869 5868 5867 5866 5865 5864 5863 5862 5861 5860 5859 5858
5899 5897 5896 5894 5893 5892 5891 5890 5889 5888 5887 5885 5884 5883 5882 5881 5881 5880 5879 5878 5877 5876 5876 5875 5874 5873 5872 5871 5870 5869 5868 5867 5866 5865 5865 5863 5862 5861 5860 5859 5858 5857 5856
5899 5898 5896 5894 5893 5892 5890 5889 5888 5888 5886 5885 5884 5883 5882 5881 5880 5879 5878 5877 5876 5875 5874 5873 5872 5871 5870 5869 5869 5868 5867 5865 5864 5863 5862 5861 5860 5859 5858 5857 5856 5855 5854
5899 5897 5896 5894 5893 5891 5890 5889 5888 5887 5885 5884 5883 5882 5881 5880 5879 5878 5877 5876 5875 5874 5873 5872 5871 5869 5868 5867 5867 5866 5865 5864 5862 5861 5860 5859 5858 5857 5855 5854 5853 5852 5851
5898 5897 5895 5893 5892 5891 5889 5888 5887 5885 5884 5883 5882 5881 5880 5879 5877 5877 5876 5875 5874 5872 5871 5870 5869 5868 5867 5866 5865 5865 5863 5862 5861 5860 5858 5857 5856 5855 5853 5852 5851 5850 5849
5897 5895 5894 5892 5891 5889 5888 5887 5886 5884 5883 5882 5881 5880 5878 5878 5876 5875 5874 5873 5872 5871 5870 5869 5868 5867 5866 5864 5863 5862 5862 5860 5859 5858 5857 5855 5854 5852 5851 5849 5849 5847 5846
5895 5894 5892 5891 5889 5888 5886 5885 5884 5883 5881 5880 5879 5878 5877 5876 5875 5874 5873 5872 5871 5870 5868 5867 5866 5865 5864 5863 5862 5860 5859 5858 5857 5856 5855 5853 5852 5850 5849 5848 5846 5845 5843
5893 5892 5890 5889 5887 5886 5884 5883 5882 5881 5880 5879 5878 5876 5875 5875 5874 5873 5871 5870 5869 5868 5867 5866 5864 5863 5862 5861 5859 5858 5857 5856 5854 5853 5852 5851 5850 5848 5846 5845 5843 5842 5840